EW5860 Weather Reports


time (UTC)temp
F
wind
direction
speed
knots
gust
knots
rain 1hr
in
rain 24hr
in
rain mn
in
humidity
%
barometer
mb
20200124030033 32 258 0.0 0.0 0.00 0.00 0.00 71 1028.3
20200124024527 32 258 0.0 0.0 0.00 0.00 0.00 69 1028.4
20200124023039 32 258 0.0 0.0 0.00 0.00 0.00 71 1028.4
20200124021521 32 198 0.0 0.0 0.00 0.00 0.00 70 1028.5
20200124020020 32 224 0.0 0.0 0.00 0.00 0.00 70 1028.6
20200124014512 32 224 0.0 0.0 0.00 0.00 0.00 72 1028.6
20200124013038 32 224 0.0 0.0 0.00 0.00 0.00 71 1028.6
20200124011512 32 224 0.0 0.0 0.00 0.00 0.00 69 1028.8
20200124010123 32 224 0.0 0.0 0.00 0.00 0.00 71 1028.8
20200124004509 32 224 0.0 0.0 0.00 0.00 0.00 71 1028.7
20200124003037 32 236 0.0 0.0 0.00 0.00 0.00 71 1028.7
20200124001507 33 236 0.0 0.0 0.00 0.00 0.00 72 1028.5
20200124000007 33 237 0.0 0.0 0.00 0.00 0.00 75 1028.4
20200123234513 33 237 0.0 0.0 0.00 0.00 0.00 73 1028.2
20200123233006 34 237 0.0 0.9 0.00 0.00 0.00 73 1028.0
20200123231512 34 155 0.0 0.0 0.00 0.00 0.00 67 1027.9
20200123230003 35 155 0.0 0.0 0.00 0.00 0.00 67 1028.1
20200123224503 35 154 0.0 0.0 0.00 0.00 0.00 63 1028.1
20200123223006 36 155 0.0 0.0 0.00 0.00 0.00 68 1028.1
20200123220351 37 115 0.0 0.0 0.00 0.00 0.00 65 1028.1
20200123214836 38 115 0.0 0.0 0.00 0.00 0.00 58 1028.2
20200123213333 39 115 0.0 0.0 0.00 0.00 0.00 59 1028.0
20200123211816 40 115 0.0 0.0 0.00 0.00 0.00 53 1028.0
20200123210239 40 116 0.0 0.9 0.00 0.00 0.00 53 1027.9
20200123204700 40 116 0.0 0.9 0.00 0.00 0.00 54 1027.9
20200123203230 40 112 0.0 0.0 0.00 0.00 0.00 53 1027.6
20200123201636 41 112 0.0 0.9 0.00 0.00 0.00 53 1027.4
20200123200157 41 121 0.0 0.9 0.00 0.00 0.00 53 1027.5
20200123194701 41 75 0.0 0.9 0.00 0.00 0.00 54 1027.4
20200123193235 41 75 0.0 0.9 0.00 0.00 0.00 54 1027.5
20200123191721 41 111 0.0 0.9 0.00 0.00 0.00 54 1027.7
20200123190138 41 44 0.0 0.9 0.00 0.00 0.00 53 1027.9
20200123184648 40 105 0.0 0.9 0.00 0.00 0.00 55 1028.0
20200123183112 40 83 0.0 0.9 0.00 0.00 0.00 56 1028.2
20200123181807 39 282 0.0 1.7 0.00 0.00 0.00 58 1028.5
20200123180057 39 315 0.0 1.7 0.00 0.00 0.00 60 1028.8
20200123174639 39 329 0.0 0.9 0.00 0.00 0.00 59 1029.1
20200123173126 38 67 0.0 0.9 0.00 0.00 0.00 60 1029.4
20200123171541 37 13 0.0 0.9 0.00 0.00 0.00 62 1029.6
20200123170114 37 65 0.0 0.0 0.00 0.00 0.00 64 1029.9
20200123164529 36 38 0.0 0.9 0.00 0.00 0.00 66 1030.2
20200123163124 36 328 0.0 1.7 0.00 0.00 0.00 67 1030.5
20200123161715 35 28 0.0 0.9 0.00 0.00 0.00 70 1030.7
20200123160114 34 36 0.0 0.0 0.00 0.00 0.00 71 1030.9
20200123154516 33 21 0.0 0.0 0.00 0.00 0.00 71 1031.1
20200123153010 32 28 0.0 0.0 0.00 0.00 0.00 72 1031.1
20200123151505 31 360 0.0 0.9 0.00 0.00 0.00 73 1031.1
20200123150003 30 12 0.0 0.0 0.00 0.00 0.00 74 1031.1
20200123144646 28 12 0.0 0.9 0.00 0.00 0.00 80 1031.2
20200123143139 27 12 0.0 0.9 0.00 0.00 0.00 81 1031.0
20200123141633 25 217 0.0 0.0 0.00 0.00 0.00 87 1030.9
20200123140200 24 217 0.0 0.0 0.00 0.00 0.00 88 1030.9
20200123134640 22 217 0.0 0.0 0.00 0.00 0.00 88 1030.6
20200123133143 21 217 0.0 0.0 0.00 0.00 0.00 88 1030.5
20200123131639 21 217 0.0 0.0 0.00 0.00 0.00 87 1030.5
20200123130154 21 217 0.0 0.0 0.00 0.00 0.00 88 1030.5
20200123124652 20 216 0.0 0.0 0.00 0.00 0.00 88 1030.4
20200123123154 20 216 0.0 0.0 0.00 0.00 0.00 87 1030.4
20200123121744 20 216 0.0 0.0 0.00 0.00 0.00 88 1030.5
20200123120142 20 216 0.0 0.0 0.00 0.00 0.00 88 1030.5
20200123114631 20 216 0.0 0.0 0.00 0.00 0.00 88 1030.3
20200123113122 19 216 0.0 0.0 0.00 0.00 0.00 88 1030.3
20200123111552 19 216 0.0 0.0 0.00 0.00 0.00 87 1030.2
20200123110136 19 216 0.0 0.0 0.00 0.00 0.00 86 1030.0
20200123104553 20 216 0.0 0.0 0.00 0.00 0.00 86 1030.1
20200123103059 20 216 0.0 0.0 0.00 0.00 0.00 86 1030.1
20200123101607 19 215 0.0 0.0 0.00 0.00 0.00 87 1030.0
20200123100308 19 148 0.0 0.0 0.00 0.00 0.00 86 1029.8
20200123094617 19 148 0.0 0.0 0.00 0.00 0.00 86 1029.6
20200123093113 19 148 0.0 0.0 0.00 0.00 0.00 85 1029.8
20200123091610 20 148 0.0 0.0 0.00 0.00 0.00 85 1029.8
20200123090040 20 148 0.0 0.0 0.00 0.00 0.00 85 1030.1
20200123084542 20 148 0.0 0.0 0.00 0.00 0.00 86 1030.1
20200123083123 20 148 0.0 0.0 0.00 0.00 0.00 85 1030.2
20200123081554 20 148 0.0 0.0 0.00 0.00 0.00 84 1030.4
20200123080055 20 148 0.0 0.0 0.00 0.00 0.00 84 1030.6
20200123074611 21 148 0.0 0.0 0.00 0.00 0.00 84 1030.7
20200123073121 21 148 0.0 0.0 0.00 0.00 0.00 84 1030.6
20200123071554 21 148 0.0 0.0 0.00 0.00 0.00 84 1030.5
20200123070039 21 250 0.0 0.0 0.00 0.00 0.00 84 1030.1
20200123064526 21 250 0.0 0.0 0.00 0.00 0.00 85 1030.1
20200123063053 21 250 0.0 0.0 0.00 0.00 0.00 84 1030.2
20200123061525 21 250 0.0 0.0 0.00 0.00 0.00 83 1030.4
20200123060122 22 250 0.0 0.0 0.00 0.00 0.00 82 1030.5
20200123054551 22 250 0.0 0.0 0.00 0.00 0.00 82 1030.7
20200123053030 22 250 0.0 0.0 0.00 0.00 0.00 82 1031.0
20200123051525 23 250 0.0 0.0 0.00 0.00 0.00 81 1031.1
20200123050002 23 250 0.0 0.0 0.00 0.00 0.00 80 1031.2
20200123044501 24 250 0.0 0.0 0.00 0.00 0.00 79 1031.3
20200123043203 24 250 0.0 0.0 0.00 0.00 0.00 80 1031.2
20200123041745 23 250 0.0 0.0 0.00 0.00 0.00 81 1031.4
20200123040152 23 250 0.0 0.0 0.00 0.00 0.00 81 1031.3
20200123034718 23 250 0.0 0.0 0.00 0.00 0.00 81 1031.1
20200123033219 22 250 0.0 0.0 0.00 0.00 0.00 81 1031.1
20200123031657 23 250 0.0 0.0 0.00 0.00 0.00 80 1031.3
20200123030404 23 250 0.0 0.0 0.00 0.00 0.00 81 1031.2